Location: Gad�tanya
(48.0500°N, 20.8500°E)
Time: 22:54:58
(UTC+00:00)

ERS-1 Rocket - Pass Details

Date: 05 July 2020
Orbit: 752 x 758 km, 98.5° (Epoch: 05 August)

Event Time Altitude Azimuth Distance (km) Brightness Sun altitude
Exits shadow 20:56:50 12° 203° (SSW) 2,148 4.9 -15.5°
Maximum altitude 21:00:57 33° 264° (W) 1,268 4.3 -15.8°
Drops below altitude 10° 21:05:30 10° 328° (NNW) 2,298 6.8 -16.1°
Sets 21:08:02 0° 338° (NNW) 3,227 8.1 -16.2°
